StationID,Date,MaxTemp,MinTemp,Precipitation,Snowfall,SnowDepth
"USC00500235","2011-01-01",-27.04,-31.00,0.00,0.00,508.00
"USC00500235","2011-01-02",-0.04,-31.00,0.00,0.00,508.00
"USC00500235","2011-01-03",3.02,-0.04,0.00,0.00,508.00
"USC00500235","2011-01-04",3.02,-0.04,0.00,0.00,508.00
"USC00500235","2011-01-05",3.02,-4.00,0.00,0.00,508.00
"USC00500235","2011-01-06",5.00,3.02,0.00,0.00,508.00
"USC00500235","2011-01-07",5.00,-9.04,0.00,0.00,508.00
"USC00500235","2011-01-08",3.02,-14.08,0.00,0.00,533.00
"USC00500235","2011-01-09",30.02,1.04,0.00,0.00,559.00
"USC00500235","2011-01-10",30.02,-0.94,132.00,41.00,533.00
"USC00500235","2011-01-11",8.06,-5.08,0.00,0.00,533.00
"USC00500235","2011-01-12",-5.08,-13.00,0.00,0.00,533.00
"USC00500235","2011-01-13",-9.04,-16.96,0.00,0.00,533.00
"USC00500235","2011-01-14",-14.08,-18.94,0.00,0.00,533.00
"USC00500235","2011-01-15",-0.04,-16.96,0.00,0.00,533.00
"USC00500235","2011-01-16",-2.02,-20.02,0.00,0.00,533.00
"USC00500235","2011-01-17",1.94,-25.06,5.00,15.00,610.00
"USC00500235","2011-01-18",-22.00,-27.04,0.00,0.00,610.00
"USC00500235","2011-01-19",-18.94,-31.00,0.00,0.00,610.00
"USC00500235","2011-01-20",-31.00,-38.92,0.00,0.00,610.00
"USC00500235","2011-01-21",-29.92,-38.02,0.00,0.00,610.00
"USC00500235","2011-01-22",-32.98,-40.00,0.00,0.00,610.00
"USC00500235","2011-01-23",-38.92,-45.94,0.00,0.00,610.00
"USC00500235","2011-01-24",-32.98,-45.94,0.00,0.00,610.00
"USC00500235","2011-01-25",-32.98,-47.02,0.00,0.00,610.00
"USC00500235","2011-01-26",-32.98,-49.00,0.00,0.00,610.00
"USC00500235","2011-01-27",-22.00,-34.96,0.00,0.00,610.00
"USC00500235","2011-01-28",-7.96,-22.00,0.00,0.00,610.00
"USC00500235","2011-01-29",-0.04,-11.02,0.00,0.00,610.00
"USC00500235","2011-01-30",15.08,-2.02,0.00,0.00,610.00
"USC00500235","2011-01-31",8.06,-0.04,0.00,0.00,610.00
"USC00500235","2011-02-01",5.00,-7.96,0.00,0.00,610.00
"USC00500235","2011-02-02",8.06,-4.00,13.00,3.00,610.00
"USC00500235","2011-02-03",8.06,-11.02,0.00,0.00,610.00
"USC00500235","2011-02-04",-0.04,-11.02,0.00,0.00,610.00
"USC00500235","2011-02-05",8.06,-2.02,0.00,0.00,610.00
"USC00500235","2011-02-06",3.02,-25.06,0.00,0.00,610.00
"USC00500235","2011-02-07",-11.02,-25.06,0.00,0.00,610.00
"USC00500235","2011-02-08",8.06,-14.08,0.00,0.00,610.00
"USC00500235","2011-02-09",5.00,-2.02,33.00,20.00,610.00
"USC00500235","2011-02-10",1.04,-11.92,36.00,20.00,635.00
"USC00500235","2011-02-11",-11.92,-31.00,0.00,0.00,635.00
"USC00500235","2011-02-12",-18.04,-29.02,0.00,0.00,635.00
"USC00500235","2011-02-13",-11.02,-23.98,0.00,0.00,635.00
"USC00500235","2011-02-14",-11.02,-27.94,0.00,25.00,635.00
"USC00500235","2011-02-15",-16.96,-29.92,0.00,0.00,635.00
"USC00500235","2011-02-16",-20.92,-27.94,0.00,0.00,635.00
"USC00500235","2011-02-17",12.02,-27.94,0.00,0.00,635.00
"USC00500235","2011-02-18",17.96,3.02,0.00,0.00,635.00
"USC00500235","2011-02-19",12.92,-16.96,0.00,0.00,635.00
"USC00500235","2011-02-20",-5.98,-23.98,0.00,0.00,635.00
"USC00500235","2011-02-21",-2.02,-14.08,0.00,0.00,635.00
"USC00500235","2011-02-22",-9.94,-27.94,0.00,0.00,635.00
"USC00500235","2011-02-23",-4.00,-27.94,0.00,0.00,813.00
"USC00500235","2011-02-24",30.02,-5.08,36.00,10.00,914.00
"USC00500235","2011-02-25",30.02,-14.08,0.00,0.00,1143.00
"USC00500235","2011-02-26",-14.08,-18.04,0.00,0.00,1143.00
"USC00500235","2011-02-27",-16.96,-27.04,0.00,0.00,1143.00
"USC00500235","2011-02-28",1.04,-16.96,0.00,0.00,1143.00
"USC00500235","2011-03-01",-4.00,-16.96,0.00,0.00,1143.00
"USC00500235","2011-03-02",-9.04,-16.96,0.00,0.00,1143.00
"USC00500235","2011-03-03",-13.00,-18.04,0.00,0.00,1143.00
"USC00500235","2011-03-04",-4.00,-22.00,0.00,0.00,1143.00
"USC00500235","2011-03-05",-4.00,-18.04,0.00,0.00,1143.00
"USC00500235","2011-03-06",-0.04,-18.04,0.00,0.00,1143.00
"USC00500235","2011-03-07",3.92,-11.92,119.00,3.00,1168.00
"USC00500235","2011-03-08",-4.00,-16.96,0.00,0.00,1168.00
"USC00500235","2011-03-09",-11.02,-20.92,0.00,0.00,1168.00
"USC00500235","2011-03-10",-4.00,-20.02,0.00,0.00,1168.00
"USC00500235","2011-03-11",-4.00,-14.98,0.00,0.00,1168.00
"USC00500235","2011-03-12",-14.08,-25.06,8.00,13.00,1168.00
"USC00500235","2011-03-13",-14.08,-29.02,0.00,0.00,1168.00
"USC00500235","2011-03-14",-16.06,-27.94,0.00,0.00,1168.00
"USC00500235","2011-03-15",-11.92,-18.94,0.00,0.00,1168.00
"USC00500235","2011-03-16",-11.02,-18.94,0.00,0.00,1143.00
"USC00500235","2011-03-17",-13.00,-25.96,0.00,0.00,1143.00
"USC00500235","2011-03-18",-7.06,-18.04,0.00,0.00,1118.00
"USC00500235","2011-03-19",3.92,-14.98,0.00,0.00,1118.00
"USC00500235","2011-03-20",10.94,-0.04,0.00,0.00,1118.00
"USC00500235","2011-03-21",15.98,-11.92,0.00,0.00,1118.00
"USC00500235","2011-03-22",12.02,-2.02,0.00,0.00,1118.00
"USC00500235","2011-03-23",12.92,1.94,0.00,0.00,1118.00
"USC00500235","2011-03-24",15.08,-2.02,0.00,0.00,1118.00
"USC00500235","2011-03-25",14.00,-7.06,0.00,0.00,1118.00
"USC00500235","2011-03-26",3.02,-9.04,0.00,0.00,1118.00
"USC00500235","2011-03-27",6.08,-2.92,13.00,5.00,1118.00
"USC00500235","2011-03-28",5.00,-5.98,8.00,3.00,1118.00
"USC00500235","2011-03-29",3.02,-18.04,0.00,0.00,1118.00
"USC00500235","2011-03-30",1.04,-2.92,0.00,0.00,1118.00
"USC00500235","2011-03-31",-0.94,-18.04,0.00,0.00,1118.00
"USC00500235","2011-04-01",1.04,-14.98,0.00,0.00,1118.00
"USC00500235","2011-04-02",1.04,-16.96,0.00,0.00,1118.00
"USC00500235","2011-04-03",6.08,-18.04,0.00,0.00,1118.00
"USC00500235","2011-04-04",6.08,-7.06,0.00,0.00,1118.00
"USC00500235","2011-04-05",3.92,-5.98,76.00,30.00,1118.00
"USC00500235","2011-04-06",-2.02,-23.98,0.00,0.00,1118.00
"USC00500235","2011-04-07",1.04,-18.04,0.00,0.00,1118.00
"USC00500235","2011-04-08",1.04,-9.94,0.00,0.00,1118.00
"USC00500235","2011-04-09",-0.94,-18.04,0.00,0.00,1118.00
"USC00500235","2011-04-10",-2.92,-18.04,0.00,0.00,1118.00
"USC00500235","2011-04-11",-2.92,-18.94,0.00,0.00,1118.00
"USC00500235","2011-04-12",-4.00,-16.06,0.00,0.00,1118.00
"USC00500235","2011-04-13",-0.04,-16.96,0.00,0.00,1118.00
"USC00500235","2011-04-14",-0.94,-14.08,0.00,0.00,1118.00
"USC00500235","2011-04-15",-0.94,-25.06,0.00,0.00,1118.00
"USC00500235","2011-04-16",15.98,-0.94,0.00,0.00,1092.00
"USC00500235","2011-04-17",19.94,1.04,0.00,0.00,1092.00
"USC00500235","2011-04-18",24.98,1.94,0.00,0.00,1092.00
"USC00500235","2011-04-19",23.00,5.00,0.00,0.00,1118.00
"USC00500235","2011-04-20",10.04,-4.00,13.00,3.00,1118.00
"USC00500235","2011-04-21",8.06,-11.02,33.00,13.00,1118.00
"USC00500235","2011-04-22",3.92,-9.94,0.00,0.00,1118.00
"USC00500235","2011-04-23",5.00,-11.02,0.00,0.00,1118.00
"USC00500235","2011-04-24",5.00,-11.02,0.00,0.00,1118.00
"USC00500235","2011-04-25",3.02,-11.92,0.00,0.00,1118.00
"USC00500235","2011-04-26",14.00,-4.00,0.00,0.00,1118.00
"USC00500235","2011-04-27",15.98,1.04,0.00,0.00,1118.00
"USC00500235","2011-04-28",12.02,-9.04,0.00,0.00,1118.00
"USC00500235","2011-04-29",12.02,-7.96,0.00,0.00,1118.00
"USC00500235","2011-04-30",15.98,-4.00,0.00,0.00,1118.00
"USC00500235","2011-05-01",15.98,1.94,0.00,0.00,1118.00
"USC00500235","2011-05-02",15.98,10.94,0.00,0.00,1118.00
"USC00500235","2011-05-03",15.98,5.00,5.00,10.00,1118.00
"USC00500235","2011-05-04",17.06,6.08,0.00,0.00,1118.00
"USC00500235","2011-05-05",19.04,-2.92,0.00,0.00,1118.00
"USC00500235","2011-05-06",15.98,-0.94,0.00,0.00,1118.00
"USC00500235","2011-05-07",21.92,-0.04,13.00,5.00,1118.00
"USC00500235","2011-05-08",26.06,15.98,0.00,13.00,1118.00
"USC00500235","2011-05-09",23.00,10.04,0.00,13.00,1118.00
"USC00500235","2011-05-10",15.08,8.06,0.00,15.00,1118.00
"USC00500235","2011-05-11",15.08,10.04,0.00,0.00,1118.00
"USC00500235","2011-05-12",24.98,1.94,0.00,0.00,1092.00
"USC00500235","2011-05-13",24.98,6.08,0.00,0.00,1092.00
"USC00500235","2011-05-14",26.96,17.06,0.00,0.00,1092.00
"USC00500235","2011-05-15",30.92,24.98,0.00,0.00,1092.00
"USC00500235","2011-05-16",33.08,24.98,0.00,0.00,1092.00
"USC00500235","2011-05-17",32.00,26.06,0.00,0.00,1092.00
"USC00500235","2011-05-18",30.92,24.98,0.00,0.00,1041.00
"USC00500235","2011-05-19",33.08,21.92,0.00,0.00,991.00
"USC00500235","2011-05-20",41.00,28.04,0.00,0.00,914.00
"USC00500235","2011-05-21",44.96,32.00,0.00,0.00,838.00
"USC00500235","2011-05-22",44.96,28.94,0.00,0.00,762.00
"USC00500235","2011-05-23",32.00,28.04,0.00,0.00,711.00
"USC00500235","2011-05-24",48.02,30.02,0.00,0.00,381.00
"USC00500235","2011-05-25",50.00,30.02,0.00,0.00,381.00
"USC00500235","2011-05-26",41.00,28.04,0.00,0.00,381.00
"USC00500235","2011-05-27",39.02,28.04,0.00,0.00,356.00
"USC00500235","2011-05-28",39.02,30.02,0.00,0.00,356.00
"USC00500235","2011-05-29",39.02,28.04,0.00,0.00,254.00
"USC00500235","2011-05-30",42.98,28.04,0.00,0.00,203.00
"USC00500235","2011-05-31",42.98,33.98,0.00,0.00,152.00
"USC00500235","2011-06-01",35.96,28.04,0.00,0.00,51.00
"USC00500235","2011-06-02",32.00,24.98,0.00,0.00,25.00
"USC00500235","2011-06-03",35.96,26.96,0.00,0.00,25.00
"USC00500235","2011-06-04",37.04,30.02,0.00,0.00,0.00
"USC00500235","2011-06-05",37.04,32.00,0.00,0.00,0.00
"USC00500235","2011-06-06",37.04,28.04,0.00,0.00,0.00
"USC00500235","2011-06-07",37.04,30.92,0.00,0.00,0.00
"USC00500235","2011-06-08",35.96,26.96,0.00,0.00,0.00
"USC00500235","2011-06-09",33.08,26.96,0.00,0.00,0.00
"USC00500235","2011-06-10",35.06,28.94,0.00,0.00,0.00
"USC00500235","2011-06-11",35.06,28.04,0.00,0.00,0.00
"USC00500235","2011-06-12",33.98,28.04,5.00,0.00,0.00
"USC00500235","2011-06-13",37.04,30.02,0.00,0.00,0.00
"USC00500235","2011-06-14",44.96,32.00,0.00,0.00,0.00
"USC00500235","2011-06-15",57.02,14.00,0.00,0.00,0.00
"USC00500235","2011-06-16",62.96,48.02,0.00,0.00,0.00
"USC00500235","2011-06-17",55.04,44.96,0.00,0.00,0.00
"USC00500235","2011-06-18",51.98,37.04,0.00,0.00,0.00
"USC00500235","2011-06-19",57.02,39.02,0.00,0.00,0.00
"USC00500235","2011-06-20",57.02,41.00,0.00,0.00,0.00
"USC00500235","2011-06-21",44.96,35.96,0.00,0.00,0.00
"USC00500235","2011-06-22",46.04,35.96,0.00,0.00,0.00
"USC00500235","2011-06-23",46.04,33.98,0.00,0.00,0.00
"USC00500235","2011-06-24",41.00,35.96,0.00,0.00,0.00
"USC00500235","2011-06-25",46.94,37.04,0.00,0.00,0.00
"USC00500235","2011-06-27",69.98,39.02,0.00,0.00,0.00
"USC00500235","2011-06-28",57.02,39.92,0.00,0.00,0.00
"USC00500235","2011-06-29",41.00,30.02,23.00,0.00,0.00
"USC00500235","2011-06-30",41.00,30.92,0.00,0.00,0.00
"USC00500235","2011-07-01",51.98,41.00,0.00,0.00,0.00
"USC00500235","2011-07-02",60.08,42.08,0.00,0.00,0.00
"USC00500235","2011-07-03",51.98,41.00,0.00,0.00,0.00
"USC00500235","2011-07-04",46.04,35.06,0.00,0.00,0.00
"USC00500235","2011-07-05",55.94,44.06,0.00,0.00,0.00
"USC00500235","2011-07-06",66.92,41.00,0.00,0.00,0.00
"USC00500235","2011-07-07",64.04,46.04,0.00,0.00,0.00
"USC00500235","2011-07-08",57.92,37.04,0.00,0.00,0.00
"USC00500235","2011-07-09",44.96,37.94,0.00,0.00,0.00
"USC00500235","2011-07-10",44.06,39.02,0.00,0.00,0.00
"USC00500235","2011-07-11",50.00,39.02,0.00,0.00,0.00
"USC00500235","2011-07-12",51.98,44.96,0.00,0.00,0.00
"USC00500235","2011-07-13",46.04,42.08,51.00,0.00,0.00
"USC00500235","2011-07-14",51.98,44.06,5.00,0.00,0.00
"USC00500235","2011-07-15",57.02,42.08,0.00,0.00,0.00
"USC00500235","2011-07-16",57.02,42.98,0.00,0.00,0.00
"USC00500235","2011-07-17",51.98,44.96,25.00,0.00,0.00
"USC00500235","2011-07-18",53.06,41.00,0.00,0.00,0.00
"USC00500235","2011-07-19",66.02,44.96,0.00,0.00,0.00
"USC00500235","2011-07-20",68.00,51.98,0.00,0.00,0.00
"USC00500235","2011-07-21",60.08,50.00,56.00,0.00,0.00
"USC00500235","2011-07-22",55.04,46.04,25.00,0.00,0.00
"USC00500235","2011-07-23",57.02,48.92,23.00,0.00,0.00
"USC00500235","2011-07-24",57.02,46.04,0.00,0.00,0.00
"USC00500235","2011-07-25",51.98,41.00,0.00,0.00,0.00
"USC00500235","2011-07-26",46.94,41.00,0.00,0.00,0.00
"USC00500235","2011-07-27",53.96,41.00,0.00,0.00,0.00
"USC00500235","2011-07-28",68.00,53.06,0.00,0.00,0.00
"USC00500235","2011-07-29",64.04,53.06,0.00,0.00,0.00
"USC00500235","2011-07-30",57.02,42.08,0.00,0.00,0.00
"USC00500235","2011-07-31",53.96,44.96,53.00,0.00,0.00
"USC00500235","2011-08-01",59.00,44.06,43.00,0.00,0.00
"USC00500235","2011-08-02",57.92,44.96,38.00,0.00,0.00
"USC00500235","2011-08-03",53.06,42.98,0.00,0.00,0.00
"USC00500235","2011-08-04",60.08,46.04,0.00,0.00,0.00
"USC00500235","2011-08-05",64.04,53.06,0.00,0.00,0.00
"USC00500235","2011-08-06",60.98,46.94,0.00,0.00,0.00
"USC00500235","2011-08-07",62.06,48.02,0.00,0.00,0.00
"USC00500235","2011-08-08",59.00,41.00,0.00,0.00,0.00
"USC00500235","2011-08-09",55.04,41.00,0.00,0.00,0.00
"USC00500235","2011-08-10",46.04,41.00,0.00,0.00,0.00
"USC00500235","2011-08-11",51.98,42.98,0.00,0.00,0.00
"USC00500235","2011-08-12",57.92,41.00,0.00,0.00,0.00
"USC00500235","2011-08-13",55.94,42.08,0.00,0.00,0.00
"USC00500235","2011-08-14",51.08,37.04,10.00,0.00,0.00
"USC00500235","2011-08-15",42.08,39.02,3.00,0.00,0.00
"USC00500235","2011-08-16",41.00,37.04,0.00,0.00,0.00
"USC00500235","2011-08-17",41.00,37.04,0.00,0.00,0.00
"USC00500235","2011-08-18",42.98,30.92,3.00,0.00,0.00
"USC00500235","2011-08-19",46.94,30.92,0.00,0.00,0.00
"USC00500235","2011-08-20",44.96,37.94,20.00,0.00,0.00
"USC00500235","2011-08-21",42.98,37.94,0.00,0.00,0.00
"USC00500235","2011-08-22",44.06,35.06,0.00,0.00,0.00
"USC00500235","2011-08-23",41.00,37.94,0.00,0.00,0.00
"USC00500235","2011-08-24",42.08,33.98,0.00,0.00,0.00
"USC00500235","2011-08-25",51.98,33.08,0.00,0.00,0.00
"USC00500235","2011-08-26",55.04,33.98,0.00,0.00,0.00
"USC00500235","2011-08-27",55.04,39.92,0.00,0.00,0.00
"USC00500235","2011-08-28",48.92,39.92,0.00,0.00,0.00
"USC00500235","2011-08-29",53.06,33.98,0.00,0.00,0.00
"USC00500235","2011-08-30",62.96,35.06,0.00,0.00,0.00
"USC00500235","2011-08-31",62.96,42.98,0.00,0.00,0.00
"USC00500235","2011-09-01",53.06,37.94,63.00,0.00,0.00
"USC00500235","2011-09-02",46.04,33.98,0.00,0.00,0.00
"USC00500235","2011-09-03",44.06,37.94,0.00,0.00,0.00
"USC00500235","2011-09-04",42.98,37.94,0.00,0.00,0.00
"USC00500235","2011-09-05",42.08,39.02,0.00,0.00,0.00
"USC00500235","2011-09-06",42.08,39.02,0.00,0.00,0.00
"USC00500235","2011-09-07",42.08,37.94,0.00,0.00,0.00
"USC00500235","2011-09-08",42.98,37.04,3.00,0.00,0.00
"USC00500235","2011-09-09",39.02,32.00,0.00,0.00,0.00
"USC00500235","2011-09-10",44.06,35.06,53.00,0.00,0.00
"USC00500235","2011-09-11",55.94,42.98,41.00,0.00,0.00
"USC00500235","2011-09-12",55.04,37.94,0.00,0.00,0.00
"USC00500235","2011-09-13",51.08,35.96,3.00,0.00,0.00
"USC00500235","2011-09-14",46.04,37.04,0.00,0.00,0.00
"USC00500235","2011-09-15",39.92,37.04,0.00,0.00,0.00
"USC00500235","2011-09-16",39.92,37.04,5.00,0.00,0.00
"USC00500235","2011-09-17",39.02,33.98,79.00,0.00,0.00
"USC00500235","2011-09-18",37.04,33.98,18.00,0.00,0.00
"USC00500235","2011-09-19",35.96,33.98,15.00,0.00,0.00
"USC00500235","2011-09-20",37.04,33.08,15.00,0.00,0.00
"USC00500235","2011-09-21",35.96,33.98,41.00,0.00,0.00
"USC00500235","2011-09-22",35.96,32.00,0.00,0.00,0.00
"USC00500235","2011-09-23",33.98,30.02,13.00,0.00,0.00
"USC00500235","2011-09-24",33.08,28.94,5.00,0.00,0.00
"USC00500235","2011-09-25",33.08,30.02,0.00,0.00,0.00
"USC00500235","2011-09-26",33.98,28.94,13.00,18.00,0.00
"USC00500235","2011-09-27",32.00,30.02,53.00,61.00,51.00
"USC00500235","2011-09-28",33.08,26.96,0.00,0.00,51.00
"USC00500235","2011-09-29",30.92,24.98,0.00,0.00,51.00
"USC00500235","2011-09-30",30.02,24.98,8.00,10.00,76.00
"USC00500235","2011-10-01",30.92,17.96,0.00,0.00,76.00
"USC00500235","2011-10-02",30.92,19.04,0.00,0.00,76.00
"USC00500235","2011-10-03",32.00,26.96,15.00,10.00,76.00
"USC00500235","2011-10-04",32.00,21.02,0.00,0.00,76.00
"USC00500235","2011-10-05",30.92,21.02,0.00,0.00,76.00
"USC00500235","2011-10-06",32.00,23.00,0.00,0.00,127.00
"USC00500235","2011-10-07",30.92,28.94,8.00,5.00,178.00
"USC00500235","2011-10-08",30.02,23.00,84.00,5.00,203.00
"USC00500235","2011-10-09",30.02,26.06,0.00,0.00,203.00
"USC00500235","2011-10-10",28.94,24.98,0.00,0.00,203.00
"USC00500235","2011-10-11",30.02,24.98,0.00,0.00,203.00
"USC00500235","2011-10-12",28.04,21.02,0.00,0.00,178.00
"USC00500235","2011-10-13",21.02,17.06,0.00,0.00,152.00
"USC00500235","2011-10-14",28.94,21.02,0.00,0.00,152.00
"USC00500235","2011-10-15",30.02,28.04,0.00,0.00,152.00
"USC00500235","2011-10-16",30.02,28.04,102.00,25.00,178.00
"USC00500235","2011-10-17",32.00,30.02,0.00,0.00,152.00
"USC00500235","2011-10-18",30.02,23.00,3.00,3.00,178.00
"USC00500235","2011-10-19",30.02,21.92,69.00,25.00,178.00
"USC00500235","2011-10-20",28.04,15.98,43.00,13.00,178.00
"USC00500235","2011-10-21",17.96,6.08,0.00,0.00,0.00
"USC00500235","2011-10-22",26.96,17.96,28.00,10.00,203.00
"USC00500235","2011-10-23",26.06,17.06,0.00,0.00,203.00
"USC00500235","2011-10-24",21.02,14.00,0.00,0.00,203.00
"USC00500235","2011-10-25",23.00,17.06,163.00,0.00,152.00
"USC00500235","2011-10-26",23.00,19.94,13.00,0.00,102.00
"USC00500235","2011-10-27",21.92,19.04,8.00,13.00,102.00
"USC00500235","2011-10-28",21.02,14.00,10.00,13.00,102.00
"USC00500235","2011-10-29",21.02,15.98,15.00,10.00,102.00
"USC00500235","2011-10-30",15.98,-2.92,0.00,0.00,102.00
"USC00500235","2011-10-31",21.02,-2.02,10.00,20.00,178.00
"USC00500235","2011-11-01",21.02,8.06,0.00,0.00,178.00
"USC00500235","2011-11-02",24.98,8.06,0.00,0.00,178.00
"USC00500235","2011-11-03",19.94,8.06,0.00,0.00,178.00
"USC00500235","2011-11-04",17.96,10.94,0.00,0.00,178.00
"USC00500235","2011-11-05",15.08,-2.02,0.00,0.00,178.00
"USC00500235","2011-11-06",8.96,-2.92,0.00,0.00,178.00
"USC00500235","2011-11-07",14.00,-2.02,5.00,10.00,178.00
"USC00500235","2011-11-08",10.94,-5.08,0.00,0.00,178.00
"USC00500235","2011-11-09",5.00,-11.02,0.00,0.00,178.00
"USC00500235","2011-11-10",10.04,5.00,0.00,0.00,178.00
"USC00500235","2011-11-11",10.94,-0.04,0.00,0.00,178.00
"USC00500235","2011-11-12",1.04,-5.98,13.00,8.00,178.00
"USC00500235","2011-11-13",-0.94,-7.96,5.00,5.00,178.00
"USC00500235","2011-11-14",-2.02,-9.94,0.00,0.00,178.00
"USC00500235","2011-11-15",6.98,-5.98,10.00,3.00,203.00
"USC00500235","2011-11-16",5.00,-4.00,0.00,0.00,203.00
"USC00500235","2011-11-17",5.00,-13.00,0.00,0.00,203.00
"USC00500235","2011-11-18",-11.02,-18.04,0.00,0.00,203.00
"USC00500235","2011-11-19",-13.00,-18.04,0.00,0.00,203.00
"USC00500235","2011-11-20",-2.02,-14.98,0.00,0.00,203.00
"USC00500235","2011-11-21",-11.02,-25.06,0.00,0.00,203.00
"USC00500235","2011-11-22",-13.00,-23.98,0.00,0.00,203.00
"USC00500235","2011-11-23",-20.02,-31.00,0.00,0.00,203.00
"USC00500235","2011-11-24",-13.00,-31.00,0.00,0.00,203.00
"USC00500235","2011-11-25",-13.00,-18.04,0.00,0.00,203.00
"USC00500235","2011-11-26",-18.04,-29.02,0.00,0.00,203.00
"USC00500235","2011-11-27",-16.06,-32.98,0.00,0.00,203.00
"USC00500235","2011-11-28",-13.00,-18.04,0.00,0.00,203.00
"USC00500235","2011-11-29",-18.04,-32.08,0.00,0.00,203.00
"USC00500235","2011-11-30",-23.08,-32.08,0.00,0.00,203.00
"USC00500235","2011-12-01",-14.08,-27.94,18.00,18.00,229.00
"USC00500235","2011-12-02",-9.94,-23.98,0.00,0.00,229.00
"USC00500235","2011-12-03",-7.96,-23.08,0.00,0.00,229.00
"USC00500235","2011-12-04",6.98,-22.00,140.00,81.00,229.00
"USC00500235","2011-12-05",15.98,-18.04,0.00,0.00,483.00
"USC00500235","2011-12-06",-2.02,-18.94,0.00,0.00,483.00
"USC00500235","2011-12-07",-9.04,-22.00,0.00,0.00,483.00
"USC00500235","2011-12-08",10.94,-9.04,0.00,0.00,483.00
"USC00500235","2011-12-09",12.02,8.06,61.00,36.00,508.00
"USC00500235","2011-12-10",10.94,6.08,13.00,10.00,508.00
"USC00500235","2011-12-11",15.08,6.08,8.00,5.00,508.00
"USC00500235","2011-12-12",14.00,-11.92,10.00,10.00,508.00
"USC00500235","2011-12-13",-4.00,-18.04,0.00,0.00,508.00
"USC00500235","2011-12-14",-14.98,-25.96,0.00,0.00,508.00
"USC00500235","2011-12-15",-22.00,-34.96,0.00,0.00,508.00
"USC00500235","2011-12-16",-20.02,-23.98,0.00,0.00,508.00
"USC00500235","2011-12-17",-14.98,-25.96,0.00,0.00,508.00
"USC00500235","2011-12-18",-9.04,-18.04,0.00,0.00,508.00
"USC00500235","2011-12-19",-14.98,-22.00,0.00,0.00,508.00
"USC00500235","2011-12-20",-18.04,-25.96,0.00,0.00,508.00
"USC00500235","2011-12-21",-20.02,-27.04,0.00,0.00,0.00
"USC00500235","2011-12-22",-25.96,-36.04,0.00,0.00,508.00
"USC00500235","2011-12-23",-25.96,-32.98,0.00,0.00,508.00
"USC00500235","2011-12-24",-32.98,-34.96,0.00,0.00,508.00
"USC00500235","2011-12-25",-20.02,-34.96,0.00,0.00,508.00
"USC00500235","2011-12-26",-20.02,-25.96,20.00,15.00,508.00
"USC00500235","2011-12-27",-13.00,-25.96,10.00,3.00,508.00
"USC00500235","2011-12-28",-18.04,-23.98,18.00,15.00,508.00
"USC00500235","2011-12-29",-18.94,-25.96,8.00,13.00,508.00
"USC00500235","2011-12-30",-18.04,-25.96,0.00,0.00,533.00
"USC00500235","2011-12-31",-18.94,-29.02,0.00,0.00,533.00
"USC00500235","2012-01-01",-25.96,-34.96,0.00,0.00,533.00
"USC00500235","2012-01-02",-11.02,-32.98,0.00,0.00,533.00
"USC00500235","2012-01-03",-14.98,-22.00,0.00,0.00,533.00
"USC00500235","2012-01-04",-11.02,-38.02,0.00,0.00,533.00
"USC00500235","2012-01-05",-11.02,-20.02,0.00,0.00,533.00
"USC00500235","2012-01-06",-20.02,-29.02,0.00,0.00,533.00
"USC00500235","2012-01-07",-16.96,-23.98,0.00,0.00,533.00
"USC00500235","2012-01-08",-22.00,-25.96,0.00,0.00,533.00
"USC00500235","2012-01-09",-20.02,-25.96,0.00,0.00,533.00
"USC00500235","2012-01-10",-20.02,-31.00,0.00,0.00,533.00
"USC00500235","2012-01-11",-7.96,-20.02,28.00,23.00,508.00
"USC00500235","2012-01-12",-11.02,-34.96,0.00,0.00,508.00
"USC00500235","2012-01-13",-23.08,-27.04,0.00,0.00,584.00
"USC00500235","2012-01-14",-16.96,-32.98,0.00,0.00,584.00
"USC00500235","2012-01-15",-27.04,-34.96,0.00,0.00,584.00
"USC00500235","2012-01-16",-20.02,-32.98,0.00,0.00,635.00
"USC00500235","2012-01-17",-20.02,-23.98,0.00,0.00,686.00
"USC00500235","2012-01-18",8.06,-22.00,0.00,0.00,737.00
"USC00500235","2012-01-19",5.00,-18.04,0.00,0.00,737.00
"USC00500235","2012-01-20",1.04,-11.02,0.00,0.00,762.00
"USC00500235","2012-01-21",-0.04,-20.92,0.00,0.00,762.00
"USC00500235","2012-01-22",-20.92,-50.98,0.00,,762.00
"USC00500235","2012-01-23",-40.00,-54.04,10.00,0.00,762.00
"USC00500235","2012-01-24",-50.08,-54.04,0.00,0.00,737.00
"USC00500235","2012-01-25",-49.00,-52.96,0.00,0.00,737.00
"USC00500235","2012-01-26",-45.94,-49.00,0.00,0.00,737.00
"USC00500235","2012-01-27",-41.08,-47.92,0.00,0.00,737.00
"USC00500235","2012-01-28",-31.00,-43.06,0.00,0.00,737.00
"USC00500235","2012-01-29",-18.04,-31.00,0.00,0.00,737.00
"USC00500235","2012-01-30",-22.00,-54.04,0.00,0.00,737.00
"USC00500235","2012-01-31",-41.08,-54.94,0.00,0.00,737.00
"USC00500235","2012-02-01",-23.98,-54.04,0.00,0.00,737.00
"USC00500235","2012-02-02",-23.08,-54.04,0.00,0.00,737.00
"USC00500235","2012-02-03",-18.94,-31.00,0.00,0.00,737.00
"USC00500235","2012-02-04",-20.92,-31.00,0.00,0.00,737.00
"USC00500235","2012-02-05",15.98,-31.00,0.00,0.00,737.00
"USC00500235","2012-02-06",5.00,-2.92,0.00,0.00,737.00
"USC00500235","2012-02-07",3.02,-4.00,0.00,0.00,737.00
"USC00500235","2012-02-08",-0.04,-9.04,0.00,0.00,737.00
"USC00500235","2012-02-09",-0.04,-7.96,0.00,0.00,737.00
"USC00500235","2012-02-10",8.96,-5.08,0.00,0.00,737.00
"USC00500235","2012-02-11",8.96,1.94,0.00,0.00,762.00
"USC00500235","2012-02-12",1.94,-4.00,0.00,0.00,762.00
"USC00500235","2012-02-13",-2.02,-4.00,0.00,0.00,762.00
"USC00500235","2012-02-14",-0.94,-4.00,0.00,0.00,762.00
"USC00500235","2012-02-15",1.94,-13.00,0.00,0.00,762.00
"USC00500235","2012-02-16",5.00,-2.92,0.00,0.00,762.00
"USC00500235","2012-02-17",1.94,-14.98,0.00,0.00,737.00
"USC00500235","2012-02-18",-2.92,-14.98,0.00,0.00,737.00
"USC00500235","2012-02-19",-5.08,-7.96,0.00,0.00,737.00
"USC00500235","2012-02-20",-2.92,-9.94,0.00,0.00,737.00
"USC00500235","2012-02-21",-5.98,-9.94,0.00,0.00,737.00
"USC00500235","2012-02-22",-4.00,-7.96,0.00,0.00,737.00
"USC00500235","2012-02-23",-7.96,-29.92,0.00,0.00,737.00